Year,Month,Day,Hour,Minute,Value (Times are PST for temperature in C)
2013,03,27,00,00,6.50
2013,03,27,00,01,6.60
2013,03,27,00,02,6.60
2013,03,27,00,03,6.70
2013,03,27,00,04,6.70
2013,03,27,00,05,6.70
2013,03,27,00,06,6.70
2013,03,27,00,07,6.80
2013,03,27,00,08,6.80
2013,03,27,00,09,6.80
2013,03,27,00,10,6.80
2013,03,27,00,11,6.80
2013,03,27,00,12,6.80
2013,03,27,00,13,6.90
2013,03,27,00,14,6.90
2013,03,27,00,15,6.90
2013,03,27,00,16,7.00
2013,03,27,00,17,7.00
2013,03,27,00,18,7.00
2013,03,27,00,19,7.00
2013,03,27,00,20,7.00
2013,03,27,00,21,6.90
2013,03,27,00,22,6.90
2013,03,27,00,23,6.90
2013,03,27,00,24,6.90
2013,03,27,00,25,6.90
2013,03,27,00,26,6.90
2013,03,27,00,27,6.90
2013,03,27,00,28,7.00
2013,03,27,00,29,7.00
2013,03,27,00,30,7.00
2013,03,27,00,31,7.00
2013,03,27,00,32,7.00
2013,03,27,00,33,7.00
2013,03,27,00,34,7.00
2013,03,27,00,35,6.90
2013,03,27,00,36,6.90
2013,03,27,00,37,6.90
2013,03,27,00,38,6.90
2013,03,27,00,39,6.90
2013,03,27,00,40,6.90
2013,03,27,00,41,6.80
2013,03,27,00,42,6.80
2013,03,27,00,43,6.80
2013,03,27,00,44,6.80
2013,03,27,00,45,6.80
2013,03,27,00,46,6.70
2013,03,27,00,47,6.70
2013,03,27,00,48,6.70
2013,03,27,00,49,6.70
2013,03,27,00,50,6.70
2013,03,27,00,51,6.60
2013,03,27,00,52,6.60
2013,03,27,00,53,6.60
2013,03,27,00,54,6.60
2013,03,27,00,55,6.60
2013,03,27,00,56,6.60
2013,03,27,00,57,6.60
2013,03,27,00,58,6.60
2013,03,27,00,59,6.60
2013,03,27,01,00,6.60
2013,03,27,01,01,6.70
2013,03,27,01,02,6.70
2013,03,27,01,03,6.70
2013,03,27,01,04,6.70
2013,03,27,01,05,6.60
2013,03,27,01,06,6.60
2013,03,27,01,07,6.60
2013,03,27,01,08,6.60
2013,03,27,01,09,6.60
2013,03,27,01,10,6.60
2013,03,27,01,11,6.60
2013,03,27,01,12,6.70
2013,03,27,01,13,6.70
2013,03,27,01,14,6.70
2013,03,27,01,15,6.70
2013,03,27,01,16,6.70
2013,03,27,01,17,6.70
2013,03,27,01,18,6.70
2013,03,27,01,19,6.70
2013,03,27,01,20,6.70
2013,03,27,01,21,6.60
2013,03,27,01,22,6.60
2013,03,27,01,23,6.60
2013,03,27,01,24,6.50
2013,03,27,01,25,6.50
2013,03,27,01,26,6.40
2013,03,27,01,27,6.40
2013,03,27,01,28,6.40
2013,03,27,01,29,6.40
2013,03,27,01,30,6.40
2013,03,27,01,31,6.30
2013,03,27,01,32,6.30
2013,03,27,01,33,6.30
2013,03,27,01,34,6.20
2013,03,27,01,35,6.20
2013,03,27,01,36,6.20
2013,03,27,01,37,6.20
2013,03,27,01,38,6.20
2013,03,27,01,39,6.20
2013,03,27,01,40,6.20
2013,03,27,01,41,6.20
2013,03,27,01,42,6.20
2013,03,27,01,43,6.20
2013,03,27,01,44,6.10
2013,03,27,01,45,6.20
2013,03,27,01,46,6.20
2013,03,27,01,47,6.10
2013,03,27,01,48,6.10
2013,03,27,01,49,6.10
2013,03,27,01,50,6.00
2013,03,27,01,51,6.00
2013,03,27,01,52,6.00
2013,03,27,01,53,5.90
2013,03,27,01,54,5.90
2013,03,27,01,55,5.90
2013,03,27,01,56,5.80
2013,03,27,01,57,5.80
2013,03,27,01,58,5.80
2013,03,27,01,59,5.80
2013,03,27,02,00,5.80
2013,03,27,02,01,5.80
2013,03,27,02,02,5.80
2013,03,27,02,03,5.80
2013,03,27,02,04,5.80
2013,03,27,02,05,5.80
2013,03,27,02,06,5.80
2013,03,27,02,07,5.80
2013,03,27,02,08,5.70
2013,03,27,02,09,5.70
2013,03,27,02,10,5.70
2013,03,27,02,11,5.70
2013,03,27,02,12,5.60
2013,03,27,02,13,5.60
2013,03,27,02,14,5.60
2013,03,27,02,15,5.60
2013,03,27,02,16,5.60
2013,03,27,02,17,5.60
2013,03,27,02,18,5.60
2013,03,27,02,19,5.60
2013,03,27,02,20,5.70
2013,03,27,02,21,5.70
2013,03,27,02,22,5.70
2013,03,27,02,23,5.70
2013,03,27,02,24,5.70
2013,03,27,02,25,5.70
2013,03,27,02,26,5.70
2013,03,27,02,27,5.70
2013,03,27,02,28,5.70
2013,03,27,02,29,5.60
2013,03,27,02,30,5.60
2013,03,27,02,31,5.60
2013,03,27,02,32,5.60
2013,03,27,02,33,5.50
2013,03,27,02,34,5.50
2013,03,27,02,35,5.50
2013,03,27,02,36,5.40
2013,03,27,02,37,5.40
2013,03,27,02,38,5.40
2013,03,27,02,39,5.40
2013,03,27,02,40,5.30
2013,03,27,02,41,5.30
2013,03,27,02,42,5.20
2013,03,27,02,43,5.20
2013,03,27,02,44,5.20
2013,03,27,02,45,5.20
2013,03,27,02,46,5.20
2013,03,27,02,47,5.20
2013,03,27,02,48,5.20
2013,03,27,02,49,5.20
2013,03,27,02,50,5.20
2013,03,27,02,51,5.20
2013,03,27,02,52,5.10
2013,03,27,02,53,5.10
2013,03,27,02,54,5.10
2013,03,27,02,55,5.10
2013,03,27,02,56,5.20
2013,03,27,02,57,5.30
2013,03,27,02,58,5.30
2013,03,27,02,59,5.40
2013,03,27,03,00,5.50
2013,03,27,03,01,5.50
2013,03,27,03,02,5.50
2013,03,27,03,03,5.50
2013,03,27,03,04,5.40
2013,03,27,03,05,5.40
2013,03,27,03,06,5.40
2013,03,27,03,07,5.40
2013,03,27,03,08,5.30
2013,03,27,03,09,5.30
2013,03,27,03,10,5.30
2013,03,27,03,11,5.30
2013,03,27,03,12,5.20
2013,03,27,03,13,5.20
2013,03,27,03,14,5.20
2013,03,27,03,15,5.10
2013,03,27,03,16,5.10
2013,03,27,03,17,5.10
2013,03,27,03,18,5.10
2013,03,27,03,19,5.10
2013,03,27,03,20,5.10
2013,03,27,03,21,5.20
2013,03,27,03,22,5.20
2013,03,27,03,23,5.30
2013,03,27,03,24,5.30
2013,03,27,03,25,5.40
2013,03,27,03,26,5.50
2013,03,27,03,27,5.60
2013,03,27,03,28,5.60
2013,03,27,03,29,5.70
2013,03,27,03,30,5.70
2013,03,27,03,31,5.70
2013,03,27,03,32,5.70
2013,03,27,03,33,5.60
2013,03,27,03,34,5.60
2013,03,27,03,35,5.60
2013,03,27,03,36,5.60
2013,03,27,03,37,5.60
2013,03,27,03,38,5.60
2013,03,27,03,39,5.60
2013,03,27,03,40,5.60
2013,03,27,03,41,5.60
2013,03,27,03,42,5.50
2013,03,27,03,43,5.50
2013,03,27,03,44,5.50
2013,03,27,03,45,5.40
2013,03,27,03,46,5.40
2013,03,27,03,47,5.40
2013,03,27,03,48,5.40
2013,03,27,03,49,5.40
2013,03,27,03,50,5.40
2013,03,27,03,51,5.30
2013,03,27,03,52,5.30
2013,03,27,03,53,5.30
2013,03,27,03,54,5.30
2013,03,27,03,55,5.20
2013,03,27,03,56,5.20
2013,03,27,03,57,5.10
2013,03,27,03,58,5.00
2013,03,27,03,59,5.00
2013,03,27,04,00,5.00
2013,03,27,04,01,4.90
2013,03,27,04,02,4.90
2013,03,27,04,03,4.80
2013,03,27,04,04,4.80
2013,03,27,04,05,4.70
2013,03,27,04,06,4.70
2013,03,27,04,07,4.60
2013,03,27,04,08,4.60
2013,03,27,04,09,4.50
2013,03,27,04,10,4.50
2013,03,27,04,11,4.50
2013,03,27,04,12,4.50
2013,03,27,04,13,4.40
2013,03,27,04,14,4.40
2013,03,27,04,15,4.40
2013,03,27,04,16,4.40
2013,03,27,04,17,4.30
2013,03,27,04,18,4.30
2013,03,27,04,19,4.30
2013,03,27,04,20,4.30
2013,03,27,04,21,4.30
2013,03,27,04,22,4.30
2013,03,27,04,23,4.30
2013,03,27,04,24,4.30
2013,03,27,04,25,4.30
2013,03,27,04,26,4.40
2013,03,27,04,27,4.40
2013,03,27,04,28,4.40
2013,03,27,04,29,4.40
2013,03,27,04,30,4.30
2013,03,27,04,31,4.30
2013,03,27,04,32,4.30
2013,03,27,04,33,4.30
2013,03,27,04,34,4.30
2013,03,27,04,35,4.30
2013,03,27,04,36,4.30
2013,03,27,04,37,4.30
2013,03,27,04,38,4.30
2013,03,27,04,39,4.30
2013,03,27,04,40,4.30
2013,03,27,04,41,4.30
2013,03,27,04,42,4.30
2013,03,27,04,43,4.20
2013,03,27,04,44,4.20
2013,03,27,04,45,4.20
2013,03,27,04,46,4.20
2013,03,27,04,47,4.10
2013,03,27,04,48,4.10
2013,03,27,04,49,4.10
2013,03,27,04,50,4.00
2013,03,27,04,51,4.00
2013,03,27,04,52,4.00
2013,03,27,04,53,3.90
2013,03,27,04,54,3.90
2013,03,27,04,55,3.90
2013,03,27,04,56,3.90
2013,03,27,04,57,3.80
2013,03,27,04,58,3.80
2013,03,27,04,59,3.80
2013,03,27,05,00,3.80
2013,03,27,05,01,3.80
2013,03,27,05,02,3.80
2013,03,27,05,03,3.90
2013,03,27,05,04,3.90
2013,03,27,05,05,4.00
2013,03,27,05,06,4.00
2013,03,27,05,07,4.00
2013,03,27,05,08,4.10
2013,03,27,05,09,4.10
2013,03,27,05,10,4.10
2013,03,27,05,11,4.10
2013,03,27,05,12,4.10
2013,03,27,05,13,4.00
2013,03,27,05,14,4.00
2013,03,27,05,15,4.00
2013,03,27,05,16,4.00
2013,03,27,05,17,4.10
2013,03,27,05,18,4.10
2013,03,27,05,19,4.10
2013,03,27,05,20,4.20
2013,03,27,05,21,4.20
2013,03,27,05,22,4.20
2013,03,27,05,23,4.30
2013,03,27,05,24,4.30
2013,03,27,05,25,4.30
2013,03,27,05,26,4.30
2013,03,27,05,27,4.30
2013,03,27,05,28,4.30
2013,03,27,05,29,4.30
2013,03,27,05,30,4.30
2013,03,27,05,31,4.30
2013,03,27,05,32,4.30
2013,03,27,05,33,4.30
2013,03,27,05,34,4.30
2013,03,27,05,35,4.30
2013,03,27,05,36,4.30
2013,03,27,05,37,4.30
2013,03,27,05,38,4.20
2013,03,27,05,39,4.20
2013,03,27,05,40,4.20
2013,03,27,05,41,4.20
2013,03,27,05,42,4.20
2013,03,27,05,43,4.20
2013,03,27,05,44,4.20
2013,03,27,05,45,4.20
2013,03,27,05,46,4.20
2013,03,27,05,47,4.20
2013,03,27,05,48,4.10
2013,03,27,05,49,4.10
2013,03,27,05,50,4.10
2013,03,27,05,51,4.00
2013,03,27,05,52,4.00
2013,03,27,05,53,3.90
2013,03,27,05,54,3.90
2013,03,27,05,55,3.90
2013,03,27,05,56,3.90
2013,03,27,05,57,3.80
2013,03,27,05,58,3.80
2013,03,27,05,59,3.80
2013,03,27,06,00,3.80
2013,03,27,06,01,3.80
2013,03,27,06,02,3.90
2013,03,27,06,03,3.90
2013,03,27,06,04,3.90
2013,03,27,06,05,3.90
2013,03,27,06,06,3.90
2013,03,27,06,07,3.90
2013,03,27,06,08,3.90
2013,03,27,06,09,3.90
2013,03,27,06,10,3.90
2013,03,27,06,11,3.90
2013,03,27,06,12,3.90
2013,03,27,06,13,3.90
2013,03,27,06,14,3.90
2013,03,27,06,15,3.90
2013,03,27,06,16,3.90
2013,03,27,06,17,3.90
2013,03,27,06,18,3.90
2013,03,27,06,19,3.90
2013,03,27,06,20,3.90
2013,03,27,06,21,3.90
2013,03,27,06,22,3.90
2013,03,27,06,23,3.80
2013,03,27,06,24,3.80
2013,03,27,06,25,3.90
2013,03,27,06,26,3.90
2013,03,27,06,27,3.80
2013,03,27,06,28,3.80
2013,03,27,06,29,3.80
2013,03,27,06,30,3.80
2013,03,27,06,31,3.80
2013,03,27,06,32,3.80
2013,03,27,06,33,3.80
2013,03,27,06,34,3.80
2013,03,27,06,35,3.80
2013,03,27,06,36,3.80
2013,03,27,06,37,3.80
2013,03,27,06,38,3.70
2013,03,27,06,39,3.70
2013,03,27,06,40,3.70
2013,03,27,06,41,3.70
2013,03,27,06,42,3.70
2013,03,27,06,43,3.70
2013,03,27,06,44,3.70
2013,03,27,06,45,3.70
2013,03,27,06,46,3.70
2013,03,27,06,47,3.70
2013,03,27,06,48,3.70
2013,03,27,06,49,3.60
2013,03,27,06,50,3.60
2013,03,27,06,51,3.60
2013,03,27,06,52,3.60
2013,03,27,06,53,3.60
2013,03,27,06,54,3.60
2013,03,27,06,55,3.60
2013,03,27,06,56,3.60
2013,03,27,06,57,3.60
2013,03,27,06,58,3.60
2013,03,27,06,59,3.60
2013,03,27,07,00,3.70
2013,03,27,07,01,3.70
2013,03,27,07,02,3.70
2013,03,27,07,03,3.80
2013,03,27,07,04,3.80
2013,03,27,07,05,3.80
2013,03,27,07,06,3.90
2013,03,27,07,07,4.00
2013,03,27,07,08,4.10
2013,03,27,07,09,4.20
2013,03,27,07,10,4.20
2013,03,27,07,11,4.20
2013,03,27,07,12,4.20
2013,03,27,07,13,4.20
2013,03,27,07,14,4.20
2013,03,27,07,15,4.20
2013,03,27,07,16,4.10
2013,03,27,07,17,4.10
2013,03,27,07,18,4.10
2013,03,27,07,19,4.10
2013,03,27,07,20,4.20
2013,03,27,07,21,4.20
2013,03,27,07,22,4.30
2013,03,27,07,23,4.30
2013,03,27,07,24,4.30
2013,03,27,07,25,4.40
2013,03,27,07,26,4.40
2013,03,27,07,27,4.40
2013,03,27,07,28,4.40
2013,03,27,07,29,4.40
2013,03,27,07,30,4.30
2013,03,27,07,31,4.30
2013,03,27,07,32,4.30
2013,03,27,07,33,4.30
2013,03,27,07,34,4.30
2013,03,27,07,35,4.20
2013,03,27,07,36,4.20
2013,03,27,07,37,4.20
2013,03,27,07,38,4.20
2013,03,27,07,39,4.20
2013,03,27,07,40,4.20
2013,03,27,07,41,4.30
2013,03,27,07,42,4.30
2013,03,27,07,43,4.30
2013,03,27,07,44,4.40
2013,03,27,07,45,4.40
2013,03,27,07,46,4.50
2013,03,27,07,47,4.50
2013,03,27,07,48,4.60
2013,03,27,07,49,4.70
2013,03,27,07,50,4.70
2013,03,27,07,51,4.80
2013,03,27,07,52,4.90
2013,03,27,07,53,4.90
2013,03,27,07,54,5.00
2013,03,27,07,55,5.10
2013,03,27,07,56,5.10
2013,03,27,07,57,5.20
2013,03,27,07,58,5.20
2013,03,27,07,59,5.30
2013,03,27,08,00,5.30
2013,03,27,08,01,5.40
2013,03,27,08,02,5.50
2013,03,27,08,03,5.50
2013,03,27,08,04,5.60
2013,03,27,08,05,5.70
2013,03,27,08,06,5.70
2013,03,27,08,07,5.80
2013,03,27,08,08,5.90
2013,03,27,08,09,6.00
2013,03,27,08,10,6.00
2013,03,27,08,11,6.10
2013,03,27,08,12,6.20
2013,03,27,08,13,6.20
2013,03,27,08,14,6.30
2013,03,27,08,15,6.30
2013,03,27,08,16,6.40
2013,03,27,08,17,6.40
2013,03,27,08,18,6.40
2013,03,27,08,19,6.50
2013,03,27,08,20,6.60
2013,03,27,08,21,6.60
2013,03,27,08,22,6.60
2013,03,27,08,23,6.60
2013,03,27,08,24,6.70
2013,03,27,08,25,6.70
2013,03,27,08,26,6.70
2013,03,27,08,27,6.80
2013,03,27,08,28,6.80
2013,03,27,08,29,6.80
2013,03,27,08,30,6.90
2013,03,27,08,31,6.90
2013,03,27,08,32,6.90
2013,03,27,08,33,6.90
2013,03,27,08,34,6.90
2013,03,27,08,35,7.00
2013,03,27,08,36,7.00
2013,03,27,08,37,7.00
2013,03,27,08,38,7.00
2013,03,27,08,39,7.00
2013,03,27,08,40,7.00
2013,03,27,08,41,7.10
2013,03,27,08,42,7.10
2013,03,27,08,43,7.10
2013,03,27,08,44,7.10
2013,03,27,08,45,7.10
2013,03,27,08,46,7.10
2013,03,27,08,47,7.10
2013,03,27,08,48,7.10
2013,03,27,08,49,7.10
2013,03,27,08,50,7.20
2013,03,27,08,51,7.20
2013,03,27,08,52,7.20
2013,03,27,08,53,7.20
2013,03,27,08,54,7.20
2013,03,27,08,55,7.20
2013,03,27,08,56,7.20
2013,03,27,08,57,7.20
2013,03,27,08,58,7.20
2013,03,27,08,59,7.30
2013,03,27,09,00,7.30
2013,03,27,09,01,7.30
2013,03,27,09,02,7.30
2013,03,27,09,03,7.30
2013,03,27,09,04,7.40
2013,03,27,09,05,7.40
2013,03,27,09,06,7.40
2013,03,27,09,07,7.50
2013,03,27,09,08,7.50
2013,03,27,09,09,7.50
2013,03,27,09,10,7.60
2013,03,27,09,11,7.60
2013,03,27,09,12,7.60
2013,03,27,09,13,7.60
2013,03,27,09,14,7.70
2013,03,27,09,15,7.70
2013,03,27,09,16,7.70
2013,03,27,09,17,7.80
2013,03,27,09,18,7.80
2013,03,27,09,19,7.80
2013,03,27,09,20,7.80
2013,03,27,09,21,7.90
2013,03,27,09,22,7.90
2013,03,27,09,23,8.00
2013,03,27,09,24,8.00
2013,03,27,09,25,8.10
2013,03,27,09,26,8.10
2013,03,27,09,27,8.10
2013,03,27,09,28,8.20
2013,03,27,09,29,8.20
2013,03,27,09,30,8.30
2013,03,27,09,31,8.30
2013,03,27,09,32,8.30
2013,03,27,09,33,8.40
2013,03,27,09,34,8.40
2013,03,27,09,35,8.40
2013,03,27,09,36,8.50
2013,03,27,09,37,8.50
2013,03,27,09,38,8.60
2013,03,27,09,39,8.60
2013,03,27,09,40,8.70
2013,03,27,09,41,8.80
2013,03,27,09,42,8.80
2013,03,27,09,43,8.90
2013,03,27,09,44,9.00
2013,03,27,09,45,9.00
2013,03,27,09,46,9.10
2013,03,27,09,47,9.20
2013,03,27,09,48,9.20
2013,03,27,09,49,9.20
2013,03,27,09,50,9.20
2013,03,27,09,51,9.30
2013,03,27,09,52,9.20
2013,03,27,09,53,9.20
2013,03,27,09,54,9.20
2013,03,27,09,55,9.20
2013,03,27,09,56,9.30
2013,03,27,09,57,9.30
2013,03,27,09,58,9.30
2013,03,27,09,59,9.40
2013,03,27,10,00,9.50
2013,03,27,10,01,9.50
2013,03,27,10,02,9.60
2013,03,27,10,03,9.60
2013,03,27,10,04,9.70
2013,03,27,10,05,9.70
2013,03,27,10,06,9.80
2013,03,27,10,07,9.80
2013,03,27,10,08,9.90
2013,03,27,10,09,10.00
2013,03,27,10,10,10.00
2013,03,27,10,11,10.00
2013,03,27,10,12,10.00
2013,03,27,10,13,10.00
2013,03,27,10,14,10.10
2013,03,27,10,15,10.10
2013,03,27,10,16,10.10
2013,03,27,10,17,10.10
2013,03,27,10,18,10.20
2013,03,27,10,19,10.20
2013,03,27,10,20,10.20
2013,03,27,10,21,10.20
2013,03,27,10,22,10.20
2013,03,27,10,23,10.30
2013,03,27,10,24,10.30
2013,03,27,10,25,10.30
2013,03,27,10,26,10.30
2013,03,27,10,27,10.30
2013,03,27,10,28,10.40
2013,03,27,10,29,10.40
2013,03,27,10,30,10.50
2013,03,27,10,31,10.50
2013,03,27,10,32,10.60
2013,03,27,10,33,10.60
2013,03,27,10,34,10.70
2013,03,27,10,35,10.70
2013,03,27,10,36,10.80
2013,03,27,10,37,10.80
2013,03,27,10,38,10.80
2013,03,27,10,39,10.80
2013,03,27,10,40,10.80
2013,03,27,10,41,10.80
2013,03,27,10,42,10.80
2013,03,27,10,43,10.80
2013,03,27,10,44,10.80
2013,03,27,10,45,10.80
2013,03,27,10,46,10.80
2013,03,27,10,47,10.80
2013,03,27,10,48,10.80
2013,03,27,10,49,10.80
2013,03,27,10,50,10.80
2013,03,27,10,51,10.90
2013,03,27,10,52,10.90
2013,03,27,10,53,10.90
2013,03,27,10,54,10.90
2013,03,27,10,55,11.00
2013,03,27,10,56,11.00
2013,03,27,10,57,11.10
2013,03,27,10,58,11.20
2013,03,27,10,59,11.20
2013,03,27,11,00,11.20
2013,03,27,11,01,11.20
2013,03,27,11,02,11.20
2013,03,27,11,03,11.20
2013,03,27,11,04,11.20
2013,03,27,11,05,11.30
2013,03,27,11,06,11.30
2013,03,27,11,07,11.40
2013,03,27,11,08,11.40
2013,03,27,11,09,11.40
2013,03,27,11,10,11.40
2013,03,27,11,11,11.50
2013,03,27,11,12,11.60
2013,03,27,11,13,11.60
2013,03,27,11,14,11.60
2013,03,27,11,15,11.70
2013,03,27,11,16,11.60
2013,03,27,11,17,11.60
2013,03,27,11,18,11.60
2013,03,27,11,19,11.70
2013,03,27,11,20,11.70
2013,03,27,11,21,11.70
2013,03,27,11,22,11.70
2013,03,27,11,23,11.70
2013,03,27,11,24,11.70
2013,03,27,11,25,11.70
2013,03,27,11,26,11.70
2013,03,27,11,27,11.70
2013,03,27,11,28,11.70
2013,03,27,11,29,11.60
2013,03,27,11,30,11.60
2013,03,27,11,31,11.60
2013,03,27,11,32,11.60
2013,03,27,11,33,11.70
2013,03,27,11,34,11.70
2013,03,27,11,35,11.80
2013,03,27,11,36,11.80
2013,03,27,11,37,11.80
2013,03,27,11,38,11.90
2013,03,27,11,39,11.90
2013,03,27,11,40,11.90
2013,03,27,11,41,11.90
2013,03,27,11,42,11.90
2013,03,27,11,43,11.90
2013,03,27,11,44,11.90
2013,03,27,11,45,12.00
2013,03,27,11,46,12.00
2013,03,27,11,47,12.00
2013,03,27,11,48,12.00
2013,03,27,11,49,12.00
2013,03,27,11,50,12.10
2013,03,27,11,51,12.10
2013,03,27,11,52,12.20
2013,03,27,11,53,12.10
2013,03,27,11,54,12.10
2013,03,27,11,55,12.10
2013,03,27,11,56,12.10
2013,03,27,11,57,12.00
2013,03,27,11,58,12.00
2013,03,27,11,59,11.90
2013,03,27,12,00,11.90
2013,03,27,12,01,11.80
2013,03,27,12,02,11.80
2013,03,27,12,03,11.90
2013,03,27,12,04,11.90
2013,03,27,12,05,11.90
2013,03,27,12,06,12.00
2013,03,27,12,07,12.00
2013,03,27,12,08,12.10
2013,03,27,12,09,12.10
2013,03,27,12,10,12.20
2013,03,27,12,11,12.20
2013,03,27,12,12,12.30
2013,03,27,12,13,12.30
2013,03,27,12,14,12.40
2013,03,27,12,15,12.40
2013,03,27,12,16,12.40
2013,03,27,12,17,12.40
2013,03,27,12,18,12.40
2013,03,27,12,19,12.40
2013,03,27,12,20,12.50
2013,03,27,12,21,12.50
2013,03,27,12,22,12.50
2013,03,27,12,23,12.40
2013,03,27,12,24,12.40
2013,03,27,12,25,12.40
2013,03,27,12,26,12.40
2013,03,27,12,27,12.40
2013,03,27,12,28,12.30
2013,03,27,12,29,12.30
2013,03,27,12,30,12.30
2013,03,27,12,31,12.30
2013,03,27,12,32,12.30
2013,03,27,12,33,12.50
2013,03,27,12,34,12.60
2013,03,27,12,35,12.60
2013,03,27,12,36,12.70
2013,03,27,12,37,12.70
2013,03,27,12,38,12.70
2013,03,27,12,39,12.80
2013,03,27,12,40,12.80
2013,03,27,12,41,12.80
2013,03,27,12,42,12.80
2013,03,27,12,43,12.80
2013,03,27,12,44,12.80
2013,03,27,12,45,12.80
2013,03,27,12,46,12.80
2013,03,27,12,47,12.90
2013,03,27,12,48,12.90
2013,03,27,12,49,12.90
2013,03,27,12,50,13.00
2013,03,27,12,51,13.00
2013,03,27,12,52,13.10
2013,03,27,12,53,13.10
2013,03,27,12,54,13.10
2013,03,27,12,55,13.10
2013,03,27,12,56,13.10
2013,03,27,12,57,13.10
2013,03,27,12,58,13.10
2013,03,27,12,59,13.20
2013,03,27,13,00,13.20
2013,03,27,13,01,13.20
2013,03,27,13,02,13.20
2013,03,27,13,03,13.30
2013,03,27,13,04,13.30
2013,03,27,13,05,13.20
2013,03,27,13,06,13.10
2013,03,27,13,07,13.00
2013,03,27,13,08,13.00
2013,03,27,13,09,12.90
2013,03,27,13,10,12.90
2013,03,27,13,11,12.90
2013,03,27,13,12,12.90
2013,03,27,13,13,12.90
2013,03,27,13,14,12.90
2013,03,27,13,15,13.00
2013,03,27,13,16,13.00
2013,03,27,13,17,13.00
2013,03,27,13,18,13.00
2013,03,27,13,19,13.10
2013,03,27,13,20,13.10
2013,03,27,13,21,13.10
2013,03,27,13,22,13.00
2013,03,27,13,23,13.00
2013,03,27,13,24,13.00
2013,03,27,13,25,12.90
2013,03,27,13,26,12.90
2013,03,27,13,27,12.90
2013,03,27,13,28,13.00
2013,03,27,13,29,13.00
2013,03,27,13,30,13.10
2013,03,27,13,31,13.10
2013,03,27,13,32,13.10
2013,03,27,13,33,13.00
2013,03,27,13,34,13.00
2013,03,27,13,35,13.10
2013,03,27,13,36,13.10
2013,03,27,13,37,13.20
2013,03,27,13,38,13.20
2013,03,27,13,39,13.30
2013,03,27,13,40,13.30
2013,03,27,13,41,13.20
2013,03,27,13,42,13.20
2013,03,27,13,43,13.30
2013,03,27,13,44,13.30
2013,03,27,13,45,13.30
2013,03,27,13,46,13.20
2013,03,27,13,47,13.20
2013,03,27,13,48,13.20
2013,03,27,13,49,13.10
2013,03,27,13,50,13.10
2013,03,27,13,51,13.10
2013,03,27,13,52,13.10
2013,03,27,13,53,13.10
2013,03,27,13,54,13.10
2013,03,27,13,55,13.10
2013,03,27,13,56,13.00
2013,03,27,13,57,13.00
2013,03,27,13,58,12.90
2013,03,27,13,59,12.90
2013,03,27,14,00,12.80
2013,03,27,14,01,12.80
2013,03,27,14,02,12.80
2013,03,27,14,03,12.70
2013,03,27,14,04,12.70
2013,03,27,14,05,12.70
2013,03,27,14,06,12.70
2013,03,27,14,07,12.70
2013,03,27,14,08,12.60
2013,03,27,14,09,12.70
2013,03,27,14,10,12.70
2013,03,27,14,11,12.80
2013,03,27,14,12,12.80
2013,03,27,14,13,12.90
2013,03,27,14,14,13.00
2013,03,27,14,15,13.00
2013,03,27,14,16,13.10
2013,03,27,14,17,13.10
2013,03,27,14,18,13.20
2013,03,27,14,19,13.30
2013,03,27,14,20,13.30
2013,03,27,14,21,13.30
2013,03,27,14,22,13.20
2013,03,27,14,23,13.20
2013,03,27,14,24,13.10
2013,03,27,14,25,13.10
2013,03,27,14,26,13.10
2013,03,27,14,27,13.10
2013,03,27,14,28,13.20
2013,03,27,14,29,13.20
2013,03,27,14,30,13.20
2013,03,27,14,31,13.20
2013,03,27,14,32,13.20
2013,03,27,14,33,13.10
2013,03,27,14,34,13.20
2013,03,27,14,35,13.20
2013,03,27,14,36,13.30
2013,03,27,14,37,13.30
2013,03,27,14,38,13.30
2013,03,27,14,39,13.40
2013,03,27,14,40,13.50
2013,03,27,14,41,13.60
2013,03,27,14,42,13.70
2013,03,27,14,43,13.60
2013,03,27,14,44,13.60
2013,03,27,14,45,13.60
2013,03,27,14,46,13.60
2013,03,27,14,47,13.60
2013,03,27,14,48,13.60
2013,03,27,14,49,13.70
2013,03,27,14,50,13.70
2013,03,27,14,51,13.70
2013,03,27,14,52,13.70
2013,03,27,14,53,13.70
2013,03,27,14,54,13.70
2013,03,27,14,55,13.80
2013,03,27,14,56,13.80
2013,03,27,14,57,13.80
2013,03,27,14,58,13.80
2013,03,27,14,59,13.80
2013,03,27,15,00,13.70
2013,03,27,15,01,13.70
2013,03,27,15,02,13.70
2013,03,27,15,03,13.80
2013,03,27,15,04,13.80
2013,03,27,15,05,13.80
2013,03,27,15,06,13.90
2013,03,27,15,07,13.90
2013,03,27,15,08,13.90
2013,03,27,15,09,13.90
2013,03,27,15,10,13.80
2013,03,27,15,11,13.70
2013,03,27,15,12,13.70
2013,03,27,15,13,13.70
2013,03,27,15,14,13.60
2013,03,27,15,15,13.60
2013,03,27,15,16,13.60
2013,03,27,15,17,13.50
2013,03,27,15,18,13.50
2013,03,27,15,19,13.50
2013,03,27,15,20,13.50
2013,03,27,15,21,13.50
2013,03,27,15,22,13.50
2013,03,27,15,23,13.60
2013,03,27,15,24,13.60
2013,03,27,15,25,13.60
2013,03,27,15,26,13.60
2013,03,27,15,27,13.70
2013,03,27,15,28,13.70
2013,03,27,15,29,13.70
2013,03,27,15,30,13.70
2013,03,27,15,31,13.70
2013,03,27,15,32,13.70
2013,03,27,15,33,13.70
2013,03,27,15,34,13.70
2013,03,27,15,35,13.70
2013,03,27,15,36,13.70
2013,03,27,15,37,13.70
2013,03,27,15,38,13.70
2013,03,27,15,39,13.60
2013,03,27,15,40,13.60
2013,03,27,15,41,13.60
2013,03,27,15,42,13.60
2013,03,27,15,43,13.60
2013,03,27,15,44,13.60
2013,03,27,15,45,13.70
2013,03,27,15,46,13.70
2013,03,27,15,47,13.70
2013,03,27,15,48,13.70
2013,03,27,15,49,13.70
2013,03,27,15,50,13.70
2013,03,27,15,51,13.70
2013,03,27,15,52,13.80
2013,03,27,15,53,13.80
2013,03,27,15,54,13.90
2013,03,27,15,55,13.90
2013,03,27,15,56,13.90
2013,03,27,15,57,13.90
2013,03,27,15,58,13.90
2013,03,27,15,59,13.80
2013,03,27,16,00,13.80
2013,03,27,16,01,13.90
2013,03,27,16,02,13.90
2013,03,27,16,03,13.90
2013,03,27,16,04,13.90
2013,03,27,16,05,13.90
2013,03,27,16,06,13.90
2013,03,27,16,07,13.90
2013,03,27,16,08,13.90
2013,03,27,16,09,14.00
2013,03,27,16,10,14.00
2013,03,27,16,11,14.10
2013,03,27,16,12,14.10
2013,03,27,16,13,14.20
2013,03,27,16,14,14.30
2013,03,27,16,15,14.30
2013,03,27,16,16,14.30
2013,03,27,16,17,14.30
2013,03,27,16,18,14.30
2013,03,27,16,19,14.40
2013,03,27,16,20,14.40
2013,03,27,16,21,14.30
2013,03,27,16,22,14.30
2013,03,27,16,23,14.30
2013,03,27,16,24,14.30
2013,03,27,16,25,14.30
2013,03,27,16,26,14.30
2013,03,27,16,27,14.30
2013,03,27,16,28,14.30
2013,03,27,16,29,14.30
2013,03,27,16,30,14.40
2013,03,27,16,31,14.40
2013,03,27,16,32,14.30
2013,03,27,16,33,14.30
2013,03,27,16,34,14.30
2013,03,27,16,35,14.30
2013,03,27,16,36,14.30
2013,03,27,16,37,14.30
2013,03,27,16,38,14.30
2013,03,27,16,39,14.40
2013,03,27,16,40,14.40
2013,03,27,16,41,14.40
2013,03,27,16,42,14.30
2013,03,27,16,43,14.40
2013,03,27,16,44,14.30
2013,03,27,16,45,14.30
2013,03,27,16,46,14.30
2013,03,27,16,47,14.40
2013,03,27,16,48,14.40
2013,03,27,16,49,14.40
2013,03,27,16,50,14.40
2013,03,27,16,51,14.40
2013,03,27,16,52,14.40
2013,03,27,16,53,14.40
2013,03,27,16,54,14.40
2013,03,27,16,55,14.40
2013,03,27,16,56,14.40
2013,03,27,16,57,14.40
2013,03,27,16,58,14.40
2013,03,27,16,59,14.40
2013,03,27,17,00,14.40
2013,03,27,17,01,14.40
2013,03,27,17,02,14.40
2013,03,27,17,03,14.30
2013,03,27,17,04,14.30
2013,03,27,17,05,14.30
2013,03,27,17,06,14.30
2013,03,27,17,07,14.40
2013,03,27,17,08,14.40
2013,03,27,17,09,14.40
2013,03,27,17,10,14.30
2013,03,27,17,11,14.30
2013,03,27,17,12,14.30
2013,03,27,17,13,14.30
2013,03,27,17,14,14.30
2013,03,27,17,15,14.30
2013,03,27,17,16,14.30
2013,03,27,17,17,14.30
2013,03,27,17,18,14.30
2013,03,27,17,19,14.30
2013,03,27,17,20,14.30
2013,03,27,17,21,14.40
2013,03,27,17,22,14.50
2013,03,27,17,23,14.50
2013,03,27,17,24,14.60
2013,03,27,17,25,14.70
2013,03,27,17,26,14.70
2013,03,27,17,27,14.80
2013,03,27,17,28,14.80
2013,03,27,17,29,14.80
2013,03,27,17,30,14.80
2013,03,27,17,31,14.80
2013,03,27,17,32,14.90
2013,03,27,17,33,14.90
2013,03,27,17,34,14.90
2013,03,27,17,35,14.90
2013,03,27,17,36,15.00
2013,03,27,17,37,15.10
2013,03,27,17,38,15.10
2013,03,27,17,39,15.20
2013,03,27,17,40,15.20
2013,03,27,17,41,15.20
2013,03,27,17,42,15.20
2013,03,27,17,43,15.20
2013,03,27,17,44,15.20
2013,03,27,17,45,15.20